Weather History for Mt. Pocono, PA

Change the Weather History Date:

Monday, April 7, 2014

  Actual Average Record
Temperature  
Mean Temperature 37 °F 42 °F  
Max Temperature 44 °F 52 °F 85 °F (1929)
Min Temperature 30 °F 32 °F 8 °F (1982)
Degree Days  
Heating Degree Days 28 23  
Month to date heating degree days 168 171  
Since 1 July heating degree days 6771 6269  
Cooling Degree Days 0 0  
Month to date cooling degree days 0 0  
Year to date cooling degree days 0 0  
Moisture  
Dew Point 28 °F    
Average Humidity 69    
Maximum Humidity 100    
Minimum Humidity 37    
Precipitation  
Precipitation 0.33 in 0.16 in 2.55 in (1960)
Month to date precipitation 0.59 1.16  
Year to date precipitation 9.19 10.25  
Sea Level Pressure  
Sea Level Pressure 29.96 in    
Wind  
Wind Speed 11 mph (ESE)    
Max Wind Speed 22 mph    
Max Gust Speed 31 mph    
Visibility 6 miles    
Events Fog , Rain    
T = Trace of Precipitation, MM = Missing Value Source: NWS Daily Summary

Daily Weather History Graph

Daily Weather History Graph

Search for Another Location

Airport:

Trip Planner

Search our weather history database for the weather conditions in past years. The results will help you decide how hot, cold, wet, or windy it might be!

Date:

Astronomy

Apr. 07, 2014 Rise Set
Actual Time 6:34 AM EDT 7:32 PM EDT
Civil Twilight 6:06 AM EDT 8:01 PM EDT
Nautical Twilight 5:33 AM EDT 8:34 PM EDT
Astronomical Twilight 4:58 AM EDT 9:09 PM EDT
Moon 12:27 PM EDT (4/7) 2:10 AM EDT (4/7)
Length of Visible Light 13h 54m
Length of Day
12h 57m
First Quarter, 53% of the Moon is Illuminated
Apr 7
First Quarter
Apr 15
Full
Apr 22
Last Quarter
Apr 29
New
May 6
First Quarter

Hourly Weather History & Observations

Time (EDT) Temp. Windchill Dew Point Humidity Pressure Visibility Wind Dir Wind Speed Gust Speed Precip Events Conditions
12:53 AM 37.9 °F - 19.9 °F 48% 30.18 in 10.0 mi Calm Calm - N/A   Clear
1:53 AM 30.9 °F 27.5 °F 21.9 °F 69% 30.17 in 10.0 mi NW 3.5 mph - N/A   Clear
2:53 AM 36.0 °F - 21.0 °F 55% 30.15 in 10.0 mi Calm Calm - N/A   Clear
3:53 AM 32.0 °F - 21.0 °F 64% 30.15 in 10.0 mi Calm Calm - N/A   Clear
4:53 AM 37.9 °F 35.5 °F 21.0 °F 51% 30.13 in 10.0 mi ESE 3.5 mph - N/A   Clear
5:53 AM 36.0 °F 32.1 °F 19.9 °F 52% 30.12 in 10.0 mi East 4.6 mph - N/A   Clear
6:53 AM 35.1 °F 29.3 °F 21.0 °F 57% 30.12 in 10.0 mi ESE 6.9 mph - N/A   Clear
7:53 AM 37.9 °F 34.4 °F 21.0 °F 51% 30.14 in 10.0 mi East 4.6 mph - N/A   Clear
8:53 AM 39.9 °F 34.5 °F 21.9 °F 49% 30.15 in 10.0 mi SE 8.1 mph - N/A   Clear
9:53 AM 41.0 °F 34.7 °F 21.9 °F 47% 30.17 in 10.0 mi SE 10.4 mph - N/A   Scattered Clouds
10:53 AM 41.0 °F 33.5 °F 21.9 °F 47% 30.15 in 10.0 mi SE 13.8 mph - N/A   Overcast
11:53 AM 42.1 °F 33.9 °F 21.9 °F 45% 30.12 in 10.0 mi SE 17.3 mph - N/A   Overcast
12:53 PM 43.0 °F 36.4 °F 19.9 °F 40% 30.09 in 10.0 mi SE 12.7 mph - 0.00 in Rain Light Rain
1:53 PM 42.1 °F 34.5 °F 19.0 °F 40% 30.04 in 10.0 mi ESE 15.0 mph 20.7 mph 0.00 in   Overcast
2:53 PM 44.1 °F 36.5 °F 19.0 °F 37% 29.98 in 10.0 mi SE 17.3 mph - N/A   Overcast
3:14 PM 43.0 °F 36.4 °F 18.0 °F 37% 29.94 in 10.0 mi ESE 12.7 mph - N/A   Overcast
3:26 PM 44.1 °F 38.6 °F 19.0 °F 37% 29.92 in 10.0 mi ESE 10.4 mph - N/A   Overcast
3:33 PM 44.1 °F 37.7 °F 19.0 °F 37% 29.92 in 10.0 mi ESE 12.7 mph - N/A   Overcast
3:53 PM 44.1 °F 38.6 °F 21.9 °F 42% 29.96 in 9.0 mi ESE 10.4 mph - N/A   Overcast
4:23 PM 39.0 °F 31.8 °F 30.9 °F 73% 29.91 in 2.0 mi ESE 11.5 mph 21.9 mph 0.00 in Rain Light Rain
4:31 PM 37.9 °F 29.2 °F 32.0 °F 79% 29.90 in 1.5 mi ESE 15.0 mph - 0.01 in Rain Light Rain
4:53 PM 37.9 °F 30.9 °F 35.1 °F 89% 29.94 in 1.0 mi ESE 10.4 mph - 0.04 in Rain Rain
5:01 PM 37.9 °F 30.9 °F 36.0 °F 93% 29.89 in 1.2 mi ESE 10.4 mph - 0.01 in Rain Light Rain
5:15 PM 37.9 °F 29.6 °F 36.0 °F 93% 29.88 in 0.2 mi ESE 13.8 mph - 0.04 in Fog , Rain Rain
5:53 PM 39.0 °F 30.3 °F 37.0 °F 93% 29.89 in 0.2 mi ESE 16.1 mph 26.5 mph 0.10 in Fog , Rain Light Rain
6:53 PM 39.0 °F 29.6 °F 37.9 °F 96% 29.86 in 0.2 mi ESE 18.4 mph 28.8 mph 0.07 in Fog , Rain Light Rain
7:19 PM 39.0 °F 29.6 °F 37.9 °F 96% 29.80 in 0.5 mi East 18.4 mph - 0.03 in Fog , Rain Light Rain
7:39 PM 39.0 °F 29.6 °F 37.0 °F 93% 29.79 in 0.2 mi ESE 18.4 mph 26.5 mph 0.05 in Fog , Rain Light Rain
7:53 PM 37.9 °F 27.6 °F 37.0 °F 97% 29.82 in 0.5 mi ESE 20.7 mph 26.5 mph 0.06 in Fog , Rain Light Rain
8:46 PM 37.9 °F 27.9 °F 36.0 °F 93% 29.76 in 0.2 mi ESE 19.6 mph 24.2 mph 0.02 in Fog , Rain Light Rain
8:53 PM 37.9 °F 29.2 °F 36.0 °F 93% 29.80 in 0.2 mi East 15.0 mph 24.2 mph 0.02 in Fog , Rain Light Rain
9:25 PM 37.9 °F 28.2 °F 37.0 °F 97% 29.74 in 0.5 mi East 18.4 mph - 0.00 in Fog , Rain Light Rain
9:53 PM 37.9 °F 28.5 °F 37.0 °F 97% 29.75 in 0.5 mi East 17.3 mph 24.2 mph 0.01 in Fog , Rain Light Rain
10:36 PM 37.9 °F 30.0 °F 37.0 °F 97% 29.69 in 0.2 mi ESE 12.7 mph - 0.00 in Fog , Rain Light Rain
10:53 PM 39.0 °F 31.4 °F 37.9 °F 96% 29.73 in 0.5 mi ESE 12.7 mph - 0.01 in Fog , Rain Light Rain
11:53 PM 39.9 °F 31.8 °F 39.0 °F 97% 29.65 in 0.5 mi East 15.0 mph - 0.01 in Fog , Rain Light Rain